RH
100 100 99 100 97 97 94 97 100 92 92 78 76 85 81 92 96 75 85 82 78 75 60 69 78 69 62 64 56 51 44 46 44 42 45 40 35 39 39 39 44 54 54
99 95 100 100 89 99 95 98 99 98 99 94 82 85 88 88 86 84 87 88 89 99 87 84 93 80 79 66 59 54 48 49 49 48 50 44 42 42 42 44 50 57 62
98 100 100 100 99 99 100 99 100 91 83 92 94 97 88 76 73 79 82 84 90 85 95 90 96 98 99 98 92 75 67 63 69 71 58 49 47 45 47 52 54 58 62
100 100 100 100 98 94 90 96 94 91 99 99 96 96 97 96 96 98 89 94 89 86 84 90 94 100 100 99 100 98 88 85 87 83 80 63 62 69 79 62 63 56 66
100 99 99 100 90 92 97 93 88 95 90 72 88 90 98 99 100 98 97 100 100 94 98 100 98 99 100 99 99 99 93 92 92 91 93 94 86 74 82 82 70 67 70
98 99 100 98 97 86 80 75 76 80 82 87 93 95 97 99 90 99 94 99 98 98 98 100 98 97 98 98 97 99 100 100 99 100 100 100 100 98 94 71 79 77 73
100 100 99 90 76 68 64 69 68 71 79 76 77 80 82 87 90 88 81 83 82 82 81 88 97 97 100 97 97 98 100 100 99 99 100 100 99 88 83 87 80 74 70
100 97 96 89 83 78 72 70 71 70 71 70 69 71 77 79 81 77 73 71 78 78 75 77 80 81 86 94 96 98 98 100 100 99 100 94 89 92 89 81 67 58 59
96 96 78 83 81 79 74 69 67 65 67 73 76 79 81 86 84 80 77 75 73 78 81 82 82 79 84 96 99 95 95 90 92 84 94 93 90 78 76 71 71 56 45
87 82 69 71 72 78 74 72 70 68 65 62 76 85 84 85 84 82 79 83 84 84 85 83 86 68 71 94 93 81 89 82 89 79 78 78 72 70 71 67 54 40 38
73 76 66 67 67 67 67 65 65 67 69 71 71 69 76 82 82 81 79 78 75 71 67 60 61 63 75 88 82 84 86 85 86 81 80 84 83 82 70 55 40 39 39
49 45 43 43 44 46 47 47 46 45 44 43 42 40 39 38 37 36 35 34 37 38 44 54 62 74 87 83 82 87 91 92 88 88 88 89 78 74 58 41 40 39 39
48 47 47 46 46 45 44 43 42 40 38 36 35 35 34 34 35 34 32 30 28 27 35 48 63 72 81 83 86 87 82 78 79 82 69 81 59 51 40 40 42 44 42
50 50 51 51 49 47 45 45 43 42 40 38 36 32 31 32 31 30 28 29 30 29 27 31 57 74 78 78 80 85 85 86 82 79 83 60 50 42 40 36 35 35 38
59 60 60 58 57 55 53 51 48 42 38 37 37 36 35 32 30 28 29 30 30 30 32 33 50 66 76 80 82 85 88 88 91 72 52 47 44 41 38 40 38 38 37
68 69 66 63 61 59 58 56 54 52 50 47 43 38 34 30 28 25 23 24 29 34 37 40 47 63 81 87 88 88 89 88 60 59 57 50 46 44 42 39 37 38 43
79 83 81 78 72 62 53 46 41 40 40 39 38 37 36 33 30 30 30 29 28 30 36 40 44 52 55 56 56 57 59 61 69 59 50 47 46 44 42 40 39 40 30
88 89 82 67 57 53 51 47 42 39 38 38 37 36 35 36 32 27 30 31 32 33 37 41 39 45 57 59 56 61 64 64 60 52 51 50 46 45 43 43 40 37 40
72 60 56 53 43 37 39 39 38 36 34 33 32 31 31 30 30 26 25 27 26 29 37 42 43 49 57 66 66 67 70 70 58 58 57 50 49 47 44 44 38 42 38
46 35 32 32 35 39 40 37 32 27 27 29 34 39 40 38 36 32 30 27 26 30 46 52 58 62 69 75 81 83 77 65 61 62 59 57 53 52 52 42 45 42 28
36 41 46 46 42 34 27 22 18 17 18 18 19 18 19 22 36 46 42 38 35 38 55 61 72 73 78 90 90 83 76 69 63 65 69 65 60 60 56 51 48 32 10
48 50 48 40 28 24 24 24 25 24 22 20 18 17 18 19 18 16 34 50 47 58 70 74 89 96 96 96 94 89 85 81 78 80 77 69 68 66 64 60 51 20 8
56 58 50 39 31 29 28 28 28 26 24 21 17 15 14 14 16 18 20 18 48 65 88 87 100 100 99 98 98 97 97 95 92 94 89 78 74 73 70 70 56 22 12
64 57 45 35 34 34 34 34 35 40 38 34 32 31 28 28 26 25 24 22 20 55 100 96 99 98 98 98 98 98 98 98 99 97 97 91 79 75 75 78 72 21 16
57 45 39 39 40 42 44 42 37 33 28 20 13 10 10 12 12 14 18 20 18 26 62 96 98 98 97 98 98 99 98 98 100 99 100 92 82 80 80 88 88 25 22
44 44 46 50 49 38 18 8 9 6 6 6 7 8 8 7 6 5 4 6 10 16 43 84 92 96 97 98 97 97 95 96 98 99 99 95 91 86 83 88 87 37 22
Wind_Speed
30 31 31 26 15 13 14 37 37 34 37 39 31 27 31 28 26 27 27 27 29 29 31 28 29 28 30 29 28 28 30 30 27 27 24 21 20 18 17 16 15 17 18
24 40 33 31 16 24 17 17 14 15 22 17 46 33 37 37 39 31 35 35 34 31 33 30 29 26 27 29 30 30 31 31 31 30 28 22 21 19 17 18 18 20 23
19 27 17 11 11 13 24 23 19 8 3 6 8 32 39 38 52 44 43 46 46 40 38 37 35 32 30 29 28 30 30 29 28 29 28 23 22 22 21 20 23 26 29
22 14 10 9 4 4 5 8 10 14 19 17 18 13 25 30 33 45 50 44 60 54 49 51 43 42 29 29 29 30 31 30 31 30 29 23 22 22 25 28 28 30 31
14 20 15 12 10 8 5 8 12 10 11 12 18 19 23 17 31 27 28 34 29 55 60 48 40 21 29 30 40 31 30 33 33 34 34 38 36 29 30 34 36 33 33
23 17 16 15 12 10 10 10 11 12 12 14 14 16 19 17 14 11 17 14 15 24 18 34 17 21 33 34 32 30 31 33 36 36 34 41 46 37 31 32 33 37 38
19 15 12 11 12 13 14 15 19 22 22 20 20 17 16 16 15 14 16 16 17 15 20 23 16 20 23 23 25 27 29 31 38 35 34 23 20 23 30 34 36 39 39
19 14 14 15 14 13 13 12 12 14 18 20 24 27 25 21 20 20 20 18 18 19 21 22 21 23 22 22 22 27 37 34 39 30 29 22 23 27 31 35 34 35 32
14 14 8 13 13 11 10 10 9 10 12 15 19 25 26 23 22 22 23 25 27 26 25 25 23 23 23 25 25 26 26 26 24 32 24 22 26 28 29 29 33 36 35
11 9 11 12 12 11 11 12 13 14 13 13 15 17 23 27 28 29 29 28 27 28 27 27 26 24 24 23 22 22 20 19 14 18 22 22 24 26 30 32 34 33 34
11 11 8 8 8 10 11 12 13 14 15 16 17 19 21 23 26 28 29 30 29 29 28 27 26 25 23 21 18 17 17 17 16 19 21 24 27 30 32 32 32 33 33
12 10 9 9 7 7 7 8 10 11 13 14 15 17 18 20 22 23 24 25 27 27 28 27 26 24 22 18 17 17 19 19 21 22 26 30 33 32 32 31 32 33 33
10 9 8 7 7 9 10 12 13 15 18 20 22 24 24 25 26 25 25 23 22 22 23 25 26 27 27 25 22 23 24 25 27 29 32 34 33 32 30 31 31 32 32
9 8 9 10 12 14 15 16 18 20 22 24 25 26 28 30 31 31 31 31 30 29 26 26 27 29 31 32 30 30 29 31 33 34 35 32 31 30 30 31 31 32 33
10 11 12 15 17 21 23 24 25 25 25 26 26 27 28 30 31 32 33 33 34 34 33 31 32 33 35 37 37 36 37 37 38 35 31 30 30 30 30 31 33 34 34
14 16 20 23 26 27 27 26 26 26 26 27 27 28 29 29 30 31 32 32 33 33 35 34 34 37 39 41 42 40 40 40 35 30 29 28 29 29 30 31 31 31 33
20 21 22 24 25 26 26 26 27 27 28 29 30 31 31 30 31 32 32 31 32 34 35 35 35 35 36 37 37 37 36 33 30 28 27 27 28 29 31 31 31 31 30
24 24 25 27 27 25 24 25 26 27 29 30 31 32 33 33 33 32 32 32 33 34 36 36 36 36 35 34 34 33 32 31 29 28 28 28 28 28 28 28 28 26 26
26 27 28 29 29 28 26 25 25 25 25 26 28 30 32 33 34 34 34 33 34 35 35 37 37 36 35 35 33 33 31 30 29 29 28 28 28 27 27 26 25 24 23
25 27 29 29 29 29 28 27 26 25 25 24 24 25 27 29 32 33 33 33 33 35 36 37 38 37 36 35 34 33 32 31 30 30 29 28 28 26 24 22 23 22 20
26 26 26 26 27 27 27 27 27 26 25 24 24 24 24 25 26 28 31 32 34 35 36 36 37 38 37 37 36 35 34 33 32 31 29 27 26 25 23 22 22 20 18
27 28 29 29 29 28 29 29 30 30 30 31 30 30 29 28 27 27 26 30 31 33 33 35 36 35 36 38 38 38 37 36 34 32 30 27 25 24 23 23 23 20 18
31 32 32 32 34 33 34 35 36 36 36 36 37 37 37 36 34 32 30 28 30 31 31 33 32 34 34 35 36 37 36 35 34 33 30 29 26 24 24 23 23 23 21
34 34 34 34 34 37 39 40 42 43 42 41 41 41 41 39 38 37 35 32 30 29 29 31 33 38 36 36 34 35 36 35 36 34 34 31 28 27 25 25 24 24 23
37 36 37 38 39 40 41 42 42 42 42 41 39 39 39 39 38 37 37 36 33 32 34 33 37 40 38 38 38 38 37 35 36 38 37 33 30 27 25 26 27 27 26
37 39 40 42 41 41 39 35 34 34 34 33 33 33 33 33 33 33 33 35 36 34 34 36 36 36 42 40 40 40 39 37 35 37 37 32 29 27 26 26 27 28 28
Wind_Direction
214 218 213 217 199 178 134 200 196 198 202 223 233 225 228 222 222 225 229 232 236 240 243 244 253 255 253 254 252 249 248 248 248 250 256 258 260 267 274 281 291 303 312
225 227 203 207 199 201 173 174 160 185 194 209 219 232 232 235 226 245 238 237 238 240 240 239 258 256 256 252 252 251 250 249 249 250 252 255 258 263 269 278 290 295 304
237 189 179 202 224 202 201 199 213 197 210 217 244 218 227 232 222 237 241 248 247 238 240 238 245 245 255 252 257 250 248 248 248 251 254 254 258 261 266 279 287 294 304
210 202 192 188 263 250 230 223 212 236 235 240 244 253 230 222 234 237 237 247 251 241 238 239 256 266 242 241 250 254 246 238 243 246 246 247 257 272 286 280 285 290 296
213 211 200 215 232 222 214 232 244 248 242 259 254 266 261 285 234 232 255 241 258 237 240 245 256 253 242 236 249 241 235 235 235 247 252 256 254 269 280 288 290 293 295
188 172 181 184 192 209 231 238 245 256 261 253 254 245 253 256 272 246 286 269 262 250 238 241 265 266 251 246 245 250 242 236 238 240 251 261 262 272 271 277 284 290 293
155 171 184 196 216 231 237 234 240 245 251 260 269 263 257 257 264 273 281 294 303 301 301 299 289 295 282 265 268 262 261 243 242 251 258 261 266 265 273 284 291 293 290
186 171 192 204 212 219 229 243 247 249 253 258 258 262 266 271 274 276 278 283 286 281 284 279 275 273 273 276 278 279 269 264 255 254 262 264 266 277 282 286 289 294 295
167 189 191 217 220 223 239 240 246 252 254 259 257 254 253 256 261 266 270 275 275 273 275 272 271 271 270 264 268 278 271 265 263 292 258 262 270 276 281 284 289 294 294
148 184 205 218 223 232 237 242 251 258 266 265 262 259 256 256 261 269 275 272 271 272 272 272 272 277 274 265 265 261 253 249 248 260 264 265 275 280 284 287 290 288 288
127 159 181 202 218 230 240 248 255 260 261 264 265 264 264 263 263 266 267 268 268 267 266 266 264 266 264 260 258 252 248 249 260 262 264 272 279 281 283 286 286 286 288
149 165 186 197 211 232 249 264 269 268 271 275 274 274 271 267 264 263 265 266 265 266 264 262 261 258 250 249 256 253 254 260 265 271 276 278 279 280 283 284 285 286 286
172 181 196 217 238 254 263 269 275 281 283 282 279 276 275 273 270 268 267 266 266 265 262 258 259 256 247 247 253 260 261 264 267 272 274 278 278 280 283 286 287 288 288
212 230 246 256 263 269 273 276 279 279 284 286 284 279 273 268 266 267 268 267 265 264 260 257 254 252 248 249 254 262 262 265 271 275 278 278 282 284 287 287 287 285 284
243 257 268 276 282 288 290 290 288 287 282 279 276 273 271 271 270 267 264 263 263 261 257 252 250 250 249 250 255 262 265 269 273 276 275 277 278 281 283 284 285 285 284
262 276 284 287 289 289 289 289 287 283 279 278 276 274 271 270 268 265 264 264 261 259 258 254 250 248 249 251 255 259 261 265 267 266 268 273 278 281 284 288 290 290 288
276 279 280 281 282 287 290 288 287 285 283 281 279 276 274 273 271 269 268 267 264 260 256 253 253 253 252 253 255 258 260 260 262 265 270 276 281 286 290 290 288 287 286
282 286 289 292 292 292 289 285 284 283 282 281 280 279 277 274 273 271 268 266 265 263 261 257 254 253 254 254 254 254 255 258 261 265 270 274 278 283 288 289 286 283 285
290 293 295 296 298 300 300 299 296 291 286 283 280 278 275 273 272 271 269 266 262 261 260 256 252 251 251 253 252 251 251 252 256 261 265 270 273 278 282 284 279 279 283
284 287 289 291 293 295 296 296 295 293 291 290 289 286 282 278 274 273 271 267 262 257 257 256 252 248 248 249 249 247 248 250 254 257 262 269 272 275 278 276 278 279 275
285 286 287 288 287 287 287 286 285 286 287 288 290 292 292 290 285 279 272 268 264 258 256 253 251 249 246 246 247 249 250 251 251 254 259 262 267 271 273 274 275 272 262
295 294 292 290 289 287 285 286 287 287 288 289 290 291 291 293 294 290 284 274 266 262 258 254 252 251 249 248 247 248 248 250 253 254 256 258 260 267 271 271 269 258 249
292 292 291 290 289 288 291 291 292 293 294 294 292 290 289 288 287 288 289 285 273 262 258 253 250 251 251 250 249 249 248 248 249 251 253 256 259 261 266 266 261 252 243
291 290 289 288 292 296 298 303 304 300 299 296 294 292 289 287 286 285 282 282 278 267 261 255 247 246 246 248 249 251 250 247 247 247 250 249 254 259 266 265 256 247 238
292 292 293 298 299 303 303 298 294 292 291 289 288 286 284 283 281 279 277 276 273 268 254 255 244 249 247 248 251 250 251 251 247 246 250 244 250 259 264 259 247 240 237
295 298 301 303 304 301 296 289 285 284 284 284 285 286 286 284 280 276 271 270 268 263 258 255 257 253 248 250 250 249 247 249 248 250 246 241 248 258 261 253 242 240 239